MST,Max TemperatureF,Mean TemperatureF,Min TemperatureF,Max Dew PointF,MeanDew PointF,Min DewpointF,Max Humidity, Mean Humidity, Min Humidity, Max Sea Level PressureIn, Mean Sea Level PressureIn, Min Sea Level PressureIn, Max VisibilityMiles, Mean VisibilityMiles, Min VisibilityMiles, Max Wind SpeedMPH, Mean Wind SpeedMPH, Max Gust SpeedMPH,PrecipitationIn, CloudCover, Events, WindDirDegrees
2011-12-1,38,26,13,19,16,11,92,68,44,30.78,30.45,29.93,10,10,9,32,17,41,0.00,1,,212
2011-12-2,40,28,16,25,18,12,78,56,33,30.36,30.10,29.79,10,9,2,44,12,58,T,6,Snow,276
2011-12-3,36,27,17,25,16,13,92,65,38,30.36,30.21,30.08,10,10,9,22,13,26,T,5,,231
2011-12-4,29,19,8,23,13,4,92,83,73,30.72,30.50,30.15,10,7,1,20,11,25,T,7,Snow,324
2011-12-5,28,18,8,14,8,2,80,63,46,30.57,30.35,30.11,10,10,10,25,18,30,0.00,0,,204
2011-12-6,43,32,21,22,17,14,75,56,36,30.24,30.13,30.04,10,10,10,33,19,41,0.00,0,,215
2011-12-7,35,24,12,26,18,12,92,81,69,30.52,30.30,30.09,10,7,2,22,6,28,0.05,5,Snow,28
2011-12-8,32,18,3,18,10,0,96,77,58,30.45,30.33,30.16,10,8,1,14,4,16,T,4,,211
2011-12-9,41,27,13,24,17,10,80,64,48,30.36,30.30,30.22,10,10,10,26,15,33,0.00,1,,210
2011-12-10,49,42,34,19,16,14,56,40,24,30.18,29.99,29.83,10,10,10,29,20,35,0.00,0,,211
2011-12-11,40,28,16,21,18,14,92,68,44,30.18,30.01,29.87,10,10,10,14,4,16,0.00,1,,353
2011-12-12,25,21,16,21,19,15,100,87,74,30.31,30.16,30.00,10,8,0,9,4,12,T,6,Snow,323
2011-12-13,35,25,14,19,13,7,88,60,32,30.09,29.95,29.81,10,10,10,17,11,24,0.00,1,,210
2011-12-14,36,31,25,20,17,9,75,55,35,30.20,30.07,29.81,10,10,10,17,8,21,0.00,7,,339
2011-12-15,39,30,21,22,20,17,84,66,48,30.33,30.16,29.98,10,10,10,25,10,31,0.00,6,,215
2011-12-16,46,35,24,28,23,17,74,60,45,30.32,30.29,30.19,10,10,10,23,15,32,0.00,0,,220
2011-12-17,54,47,39,30,26,19,64,48,32,30.26,30.11,29.92,10,10,10,41,22,52,0.00,0,,219
2011-12-18,52,38,24,28,25,14,100,63,26,30.41,30.06,29.81,10,5,0,28,13,36,0.13,6,Fog-Snow,353
2011-12-19,38,27,16,26,21,14,96,76,56,30.39,30.20,29.96,10,8,0,22,13,28,0.00,1,Fog,208
2011-12-20,43,38,33,28,23,20,59,54,48,29.98,29.86,29.78,10,10,10,31,20,41,0.00,2,,230
2011-12-21,36,25,14,27,21,13,92,74,56,30.49,30.22,29.86,10,8,0,30,10,37,0.02,6,Fog-Snow,333
2011-12-22,34,26,17,15,13,11,80,62,43,30.45,30.35,30.13,10,10,10,30,18,38,0.00,0,,209
2011-12-23,42,36,29,16,9,2,50,37,23,30.37,30.27,30.12,10,10,10,35,22,44,0.00,0,,220
2011-12-24,47,42,36,28,23,16,64,51,37,30.41,30.36,30.31,10,10,10,31,19,39,0.00,1,,223
2011-12-25,52,45,38,28,24,15,60,47,33,30.34,30.07,29.85,10,10,10,31,17,41,0.00,0,,218
2011-12-26,40,33,26,24,15,12,64,49,34,30.22,30.11,29.89,10,10,10,30,17,39,0.00,1,,230
2011-12-27,44,40,35,26,21,12,53,44,35,30.03,29.94,29.86,10,10,10,40,24,52,0.00,2,,219
2011-12-28,53,48,43,32,30,26,58,50,41,29.80,29.70,29.55,10,10,9,43,22,51,0.00,1,,222
2011-12-29,49,41,32,36,24,14,89,61,33,29.90,29.67,29.43,10,10,10,45,24,56,T,1,Rain,237
2011-12-30,52,42,32,34,26,12,75,53,30,29.75,29.57,29.44,10,10,10,29,13,36,0.00,1,,219
2011-12-31,38,28,18,22,12,7,69,51,32,30.50,30.13,29.65,10,10,10,29,18,38,0.00,1,,243